Wind_Speed
42 41 40 42 43 43 43 36 35 35 36 36 37 36 35 34 31 30 28 24 22 21 21 20 18 15 13 11 7 4 5 6 4 4 6 5 5 7 11 16 17 19 20
43 42 41 40 38 43 43 45 37 38 38 37 35 40 40 38 34 33 32 30 27 26 22 23 21 18 19 16 15 13 11 9 7 8 12 14 14 13 14 16 16 20 19
42 41 39 38 38 43 45 42 46 41 42 38 37 38 41 41 39 36 35 33 31 28 27 26 24 21 19 19 18 15 13 12 12 10 12 16 17 17 18 18 19 18 20
43 42 40 40 42 43 43 43 43 47 44 43 41 37 38 40 42 39 37 35 33 30 29 28 28 26 25 24 21 19 16 14 14 14 16 18 18 18 16 16 16 14 20
42 42 43 43 43 40 38 40 41 43 43 43 42 39 37 37 41 41 39 37 36 34 32 27 26 29 26 24 23 22 20 20 20 17 18 18 19 20 17 13 15 18 21
41 43 42 40 39 39 38 38 38 39 40 37 38 39 38 37 39 40 39 39 37 36 34 32 27 28 28 27 26 20 23 24 23 18 18 19 22 21 17 15 15 14 5
44 40 40 39 39 39 38 35 36 36 36 39 38 37 38 40 39 38 37 38 37 34 35 33 29 29 28 25 24 20 26 25 24 22 19 21 22 20 17 15 16 17 19
41 38 38 39 38 36 36 36 34 33 34 35 36 37 39 40 40 36 33 36 35 31 31 31 27 26 27 24 22 23 25 24 22 21 22 23 20 17 18 19 18 20 22
36 38 39 40 38 36 37 36 33 32 32 33 38 38 38 37 36 33 30 31 30 26 25 27 26 26 25 20 22 22 21 23 22 20 19 16 14 15 15 17 19 18 13
38 41 42 39 38 38 37 34 32 34 33 35 34 36 36 34 32 30 28 29 27 27 25 24 22 21 20 19 24 24 24 25 19 12 9 9 11 14 15 17 18 18 16
44 43 38 40 40 38 34 32 32 32 31 31 30 30 30 29 25 24 25 27 29 29 28 26 23 23 22 21 22 22 24 20 12 9 9 11 14 11 7 1 6 7 9
37 33 34 35 36 33 34 32 32 32 29 25 24 21 22 21 20 21 20 23 24 22 21 19 17 16 16 19 22 24 19 11 10 10 9 9 6 5 8 6 8 9 10
32 32 33 34 36 36 37 32 32 31 26 24 26 27 22 21 19 17 19 22 22 19 18 13 10 10 10 13 14 12 10 11 10 10 8 6 3 5 6 10 10 11 13
33 31 31 33 32 32 33 35 32 29 28 31 23 20 22 21 20 20 22 23 24 22 16 11 10 9 9 7 9 11 13 13 12 11 9 8 8 6 8 9 12 14 16
25 31 30 28 29 30 26 21 27 28 35 30 31 32 29 23 21 22 22 22 23 22 21 14 11 11 9 9 10 12 14 14 14 12 11 9 9 7 7 9 12 13 14
27 22 20 24 28 25 31 27 21 27 14 23 24 27 26 20 19 20 15 12 13 18 16 13 14 12 12 12 14 15 15 16 15 12 10 9 8 6 7 9 9 12 15
20 19 24 24 22 27 27 31 22 14 15 18 19 16 17 19 19 19 17 15 14 16 15 14 14 14 14 16 19 17 16 13 14 12 9 6 4 6 7 5 8 13 15
26 18 23 26 27 28 29 46 33 22 16 19 21 19 20 23 22 21 18 18 19 15 14 13 12 12 12 12 9 9 10 8 8 6 3 5 5 4 4 6 10 13 16
36 19 19 20 19 27 32 31 32 25 23 25 22 21 21 22 20 20 20 18 18 16 13 10 9 10 13 13 13 13 10 8 6 6 6 3 1 0 4 8 12 13 18
25 27 24 24 26 25 21 22 24 23 23 23 24 26 24 23 22 21 19 16 15 11 14 18 19 17 14 12 11 8 7 7 6 5 5 4 3 0 5 8 11 14 18
16 19 23 25 23 22 24 23 25 24 23 23 24 26 29 26 24 22 21 20 16 15 22 20 18 15 11 10 9 8 5 5 4 5 8 7 3 2 5 8 11 14 17
17 20 20 20 19 21 25 26 28 26 24 23 25 25 22 21 22 24 22 19 19 20 21 20 19 14 8 8 9 9 9 8 7 11 10 6 4 4 4 8 11 14 17
11 12 14 15 18 18 18 21 21 24 24 23 23 24 26 24 22 23 20 19 19 19 26 22 17 16 14 9 7 9 10 10 10 11 8 5 6 6 5 9 11 12 16
10 5 9 13 15 10 9 10 21 24 26 23 22 24 27 29 25 22 20 20 20 23 27 24 19 16 16 10 9 10 10 9 11 9 7 6 5 7 6 8 10 11 14
5 2 8 14 16 17 16 13 13 12 16 23 27 28 27 27 27 23 19 20 28 27 30 24 23 21 15 9 13 12 9 11 11 11 9 10 10 8 5 4 8 10 12
12 13 15 12 10 16 15 16 15 18 21 21 20 22 24 25 27 25 21 23 28 29 33 28 24 21 15 15 17 12 10 13 12 11 12 11 10 9 5 5 6 7 9
Wind_Direction
196 199 202 209 212 214 219 223 215 213 212 213 213 214 217 214 212 213 216 218 222 220 229 234 236 230 231 231 222 194 216 206 199 264 253 233 252 266 257 276 278 276 269
195 198 202 207 207 213 215 221 222 216 216 217 218 219 219 217 215 214 216 218 221 222 227 231 237 239 244 239 248 235 237 244 229 245 271 275 282 288 286 287 284 290 275
195 197 201 204 204 212 216 215 221 222 221 219 222 221 221 220 218 219 221 221 221 225 228 232 239 238 238 238 244 241 233 236 249 258 275 286 292 294 302 304 302 288 286
195 197 199 202 207 211 214 215 217 221 223 224 223 223 223 221 222 222 223 224 225 226 229 232 237 241 245 245 244 247 245 242 254 265 274 283 291 297 294 298 293 290 298
194 198 202 203 207 210 211 213 214 218 220 226 226 226 224 222 223 223 225 226 227 227 230 236 239 242 247 249 248 248 247 252 255 258 266 278 278 281 278 272 269 292 297
198 203 200 202 205 207 208 209 210 215 217 219 225 226 223 225 229 229 228 229 230 230 229 232 241 248 248 250 250 251 263 256 264 260 268 271 284 285 283 269 272 284 295
200 203 201 200 203 205 205 204 206 206 210 216 222 224 227 229 231 231 230 231 234 233 232 229 236 244 247 247 243 247 256 263 265 267 271 277 281 286 282 277 276 275 275
200 201 201 201 202 202 202 204 202 201 201 208 216 223 226 230 232 233 230 227 232 235 240 233 239 248 247 249 257 245 254 257 261 269 265 275 274 283 285 286 283 283 281
199 202 201 201 198 197 201 202 198 194 196 204 217 219 220 226 230 228 222 215 227 234 236 236 242 246 248 249 250 251 250 259 271 275 273 277 276 278 283 282 277 271 274
202 204 202 199 197 196 198 199 194 193 196 203 206 215 222 219 224 218 212 216 217 225 225 228 236 243 252 248 245 247 254 266 281 273 272 278 286 287 291 283 279 273 276
207 205 198 197 196 197 193 190 189 191 193 192 194 200 211 217 210 210 212 214 218 224 227 234 243 254 263 249 238 246 258 273 268 263 274 284 291 304 310 2 339 315 277
204 203 200 198 191 188 184 183 184 181 182 175 162 174 191 199 205 205 216 219 217 224 233 240 261 256 256 246 244 251 259 250 251 258 276 291 299 290 319 314 321 315 305
190 193 187 185 181 182 180 175 171 174 165 162 158 164 186 194 194 203 210 217 218 224 233 245 250 229 239 240 243 247 225 225 238 244 252 248 280 298 299 313 317 319 313
179 172 172 171 167 170 173 172 167 163 163 151 156 150 178 183 189 197 208 210 218 224 224 200 212 229 223 224 214 208 211 219 231 231 246 265 280 255 300 312 316 315 316
155 154 147 145 149 140 140 147 158 166 168 155 155 169 169 176 193 208 202 206 217 216 220 212 218 209 207 207 213 221 225 227 237 242 246 267 265 262 292 306 311 315 315
133 133 129 132 128 114 114 105 119 125 155 158 159 175 171 175 179 197 194 202 196 203 193 193 199 201 205 221 234 237 236 241 245 241 246 249 240 261 281 304 314 319 322
122 115 115 112 109 116 107 86 82 91 171 145 150 161 172 159 172 167 150 160 170 178 183 192 201 206 225 244 253 252 249 251 258 253 222 189 219 278 297 310 332 336 332
100 107 118 123 142 136 130 127 147 165 139 124 141 150 152 151 155 149 147 162 158 178 192 200 212 222 242 234 212 203 195 178 163 166 227 272 277 290 303 332 339 333 331
114 130 123 128 133 132 128 132 144 142 135 129 133 136 146 149 150 148 158 165 167 185 203 217 214 186 162 151 152 156 158 172 197 230 202 202 296 352 338 339 336 334 337
120 132 135 133 125 116 122 125 132 150 149 153 156 146 151 159 153 163 172 176 182 187 180 152 149 149 153 158 162 170 176 192 218 233 259 201 163 48 349 342 337 338 340
123 128 134 138 138 136 142 147 158 164 170 175 163 170 174 171 172 181 187 190 184 173 165 164 160 158 158 165 173 173 187 195 240 267 184 180 188 295 340 341 336 341 345
122 153 156 159 157 149 159 166 164 177 178 175 181 183 181 184 184 191 195 198 193 183 181 182 180 176 179 194 206 204 210 214 214 187 188 199 247 274 338 344 341 346 345
96 127 127 138 141 140 167 177 172 181 186 189 184 184 187 192 200 201 199 198 198 199 189 190 196 195 192 192 212 224 230 225 201 192 203 238 278 263 315 337 337 339 342
29 93 134 141 141 152 126 142 186 192 190 189 185 190 194 198 202 205 204 209 204 202 198 203 208 207 199 197 217 232 238 234 206 206 232 257 279 260 280 317 331 334 341
266 198 128 152 153 151 143 138 151 169 197 196 197 199 200 200 200 203 218 218 212 209 202 208 218 211 208 211 221 223 230 218 222 229 243 261 269 254 252 296 323 338 349
191 213 201 181 167 157 162 177 183 181 192 198 203 208 211 208 207 209 218 220 212 209 207 211 210 207 209 222 221 217 232 215 221 244 255 250 239 218 234 290 318 338 352
Height
743 749 754 758 764 771 775 778 783 787 790 792 795 800 803 806 810 813 816 818 821 823 825 828 829 831 832 834 834 834 835 834 836 836 836 836 836 836 837 837 836 836 836
734 741 746 752 757 763 767 771 776 780 782 785 789 793 797 801 805 808 811 814 816 819 822 824 826 828 829 831 832 833 833 834 832 833 834 834 834 834 834 833 833 832 831
727 733 738 744 749 752 757 762 767 772 775 779 782 786 790 795 799 803 805 809 812 815 818 821 823 825 826 828 829 830 830 832 832 831 831 831 830 830 829 828 827 827 827
717 724 729 734 738 742 747 753 757 763 768 772 775 779 784 789 793 797 800 804 807 810 814 816 818 820 822 824 826 827 829 829 830 829 828 828 827 827 826 826 824 824 822
707 713 716 723 729 735 740 744 749 755 760 764 770 774 779 783 786 790 795 799 801 805 808 811 814 816 818 820 822 823 825 826 825 826 826 825 824 823 822 822 821 820 819
700 701 708 715 721 725 731 736 742 746 752 757 761 767 772 777 780 784 789 792 795 798 802 805 808 810 812 814 818 820 822 822 822 822 822 820 819 818 817 817 816 816 816
687 694 701 705 712 717 723 729 733 738 745 749 755 761 765 769 772 775 781 785 789 792 796 799 802 805 807 808 812 815 816 817 818 817 815 814 813 812 813 811 810 811 810
678 686 692 697 701 710 716 720 725 731 737 742 748 752 756 759 763 769 775 779 783 787 791 794 798 801 804 807 808 808 810 810 810 811 810 808 807 808 808 808 806 805 805
670 676 681 687 692 699 705 710 717 724 730 734 738 743 747 753 759 764 770 775 779 782 787 790 793 794 797 801 802 804 805 805 806 806 805 805 805 805 804 803 802 800 799
660 663 669 677 684 688 695 704 709 715 720 725 730 735 740 746 752 758 764 768 775 779 781 784 786 789 792 795 797 800 800 800 802 801 802 803 803 802 801 800 799 796 794
646 651 660 666 672 679 688 697 704 708 713 718 723 731 738 743 750 755 761 763 767 772 775 780 782 785 787 789 792 795 797 798 798 798 797 797 799 799 797 796 795 793 791
640 649 654 659 664 673 679 688 696 702 708 714 719 730 735 743 747 753 760 764 767 771 774 776 779 780 783 785 788 790 792 794 796 797 796 796 796 796 796 795 793 791 789
631 640 644 651 654 661 670 678 687 695 702 708 712 717 736 741 744 749 755 762 765 767 772 773 776 777 779 780 783 785 789 791 794 795 795 794 794 794 794 792 790 788 786
621 629 637 644 648 655 664 670 678 686 693 694 708 716 732 737 741 746 752 756 761 763 768 770 772 775 777 779 781 783 784 786 788 789 792 792 792 791 790 789 787 785 782
622 622 630 643 650 653 660 666 673 676 672 685 690 709 721 729 735 745 745 749 754 757 764 766 770 773 775 777 779 780 782 784 786 787 788 788 788 788 787 787 785 782 780
619 631 632 635 643 658 656 668 677 672 674 685 693 708 711 718 729 741 742 748 750 756 762 764 769 770 772 775 777 778 780 783 784 783 784 784 785 785 784 783 781 780 777
624 631 639 643 640 659 666 666 682 685 709 702 705 712 715 717 729 734 736 745 751 757 759 763 766 768 770 772 774 776 778 779 779 780 781 781 781 782 781 780 778 776 774
633 642 641 648 643 659 664 653 687 714 710 707 708 709 714 718 727 727 735 747 749 754 759 762 764 766 768 769 771 771 773 776 778 779 779 779 778 779 778 777 776 774 772
633 651 657 663 663 664 664 671 687 698 701 697 708 714 720 722 727 730 738 745 747 752 757 758 761 763 765 767 770 771 771 775 777 778 777 777 776 776 776 775 774 772 770
650 655 663 666 665 667 673 677 682 697 700 708 713 709 718 728 728 733 738 744 747 750 754 756 759 762 765 767 769 771 771 772 775 776 775 774 774 774 773 773 772 770 767
657 658 660 662 666 670 675 681 690 696 705 711 706 711 718 720 725 732 737 744 748 749 753 757 760 761 763 766 767 767 770 770 771 772 772 772 772 771 771 771 769 767 765
662 662 666 669 674 677 679 685 686 698 701 706 710 716 718 721 726 732 737 742 747 748 751 754 759 758 759 762 764 765 767 767 768 769 770 770 770 769 769 768 767 765 763
671 671 673 673 676 680 683 683 688 695 703 708 711 714 716 721 728 733 734 739 744 746 748 752 754 756 757 757 758 761 763 764 765 767 768 768 767 767 766 766 765 764 761
680 678 676 678 678 680 683 689 692 695 698 704 709 713 716 720 725 729 732 737 742 744 745 748 750 754 756 753 756 759 760 761 763 764 765 765 765 764 764 764 764 762 760
684 684 679 682 682 683 683 689 692 696 700 703 707 711 713 716 722 726 728 732 735 739 743 743 746 749 753 752 755 757 758 759 761 762 762 762 761 761 761 762 761 760 758
684 686 687 687 686 685 689 695 696 695 698 702 706 709 711 715 718 722 726 729 731 734 736 738 740 747 748 750 754 755 756 757 758 759 758 758 758 758 759 759 759 758 757